"Pseudo-MPEC" for C0YZGU5

Created 2025 Jan 13 14:31:02 UT using Find_Orb

Click here for an explanation of pseudo-MPECs

 
 Astrometry: 
     C0YZGU5* C2024 12 24.21721501 44 10.824+11 19 36.77   ~COEl 23.59GVNEOCPV00
     C0YZGU5  C2024 12 24.22219801 44 10.723+11 19 35.62   ~COEl 21.64GVNEOCPV00

Station data:
(V00) Kitt Peak-Bok  (N31.963125 W111.600190)  US/Arizona.  Observers T. A.
   Pruyne, B. M. Africano, E. J. Christensen, G. A. Farneth, D. C. Fuls, A.
   R. Gibbs, A. D. Grauer, H. Gröller, J. A. Johnson, R. A. Kowalski, S. M.
   Larson, G. J. Leonard, D. Rankin, R. L. Seaman, F. C. Shelly, K. W.
   Wierzchoś. 2.25-m reflector + 4x4K mosaic CCD.

Orbital elements:  C0YZGU5
   Perihelion 2025 Nov 22.68684 +/- 597 TT = 16:29:02 (JD 2461002.18684)
Epoch 2024 Dec 24.0 TT = JDT 2460668.5   Earth MOID: 0.3329   Ju: 0.5427
M 288.59510734 +/- 100              Me: 0.0496                   AutoNEOCP
n   0.21398774 +/- 0.343            Peri.  339.54689 +/- 57
a   2.76828066 +/- 2.95             Node   222.62790 +/- 31
e   0.8613633 +/- 0.187             Incl.   25.51170 +/- 60
P   4.60591                H 16.64  G  0.15   U 12.1  SR
q 0.38378502 +/- 2.04    Q 5.15277630 +/- 48.8            (J2000 ecliptic)
From 2 observations 2024 Dec. 24 (7.2 min); mean residual 0".01
Residuals in arcseconds: 
241224 V00  .01-  .00     241224 V00  .01-  .00     

Ephemerides (geocentric):
Date (UTC) HH   RA             Dec           delta  r     elong  mag " sig PA
---- --------  ------------   ------------  ------ ------ -----  --- --------
2025 01 13 15  01 41 40.740   +10 27 01.51  3.4815 3.6834  94.0 23.0 3982 113
2025 01 13 16  01 41 40.922   +10 26 58.10  3.4819 3.6832  94.0 23.0 3994 113
2025 01 13 17  01 41 41.105   +10 26 54.71  3.4824 3.6829  93.9 23.0 4005 113
2025 01 13 18  01 41 41.291   +10 26 51.34  3.4828 3.6827  93.9 23.0 4017 113
2025 01 13 19  01 41 41.478   +10 26 47.97  3.4832 3.6824  93.8 23.0 4029 113
2025 01 13 20  01 41 41.667   +10 26 44.62  3.4837 3.6821  93.8 23.0 4041 113
2025 01 13 21  01 41 41.858   +10 26 41.27  3.4841 3.6819  93.8 23.0 4053 113
2025 01 13 22  01 41 42.051   +10 26 37.94  3.4845 3.6816  93.7 23.0 4065 113
2025 01 13 23  01 41 42.246   +10 26 34.62  3.4850 3.6814  93.7 23.0 4077 113
2025 01 14 00  01 41 42.443   +10 26 31.32  3.4854 3.6811  93.6 23.0 4089 113
2025 01 14 01  01 41 42.641   +10 26 28.02  3.4859 3.6808  93.6 23.0 4101 113
2025 01 14 02  01 41 42.842   +10 26 24.74  3.4863 3.6806  93.6 23.0 4113 113
2025 01 14 03  01 41 43.044   +10 26 21.47  3.4867 3.6803  93.5 23.0 4125 113
2025 01 14 04  01 41 43.248   +10 26 18.21  3.4872 3.6801  93.5 23.0 4137 113
2025 01 14 05  01 41 43.454   +10 26 14.96  3.4876 3.6798  93.4 23.0 4149 113
2025 01 14 06  01 41 43.662   +10 26 11.72  3.4881 3.6796  93.4 23.0 4161 113
2025 01 14 07  01 41 43.872   +10 26 08.50  3.4885 3.6793  93.3 23.0 4173 113
2025 01 14 08  01 41 44.084   +10 26 05.28  3.4889 3.6790  93.3 23.0 4185 113
2025 01 14 09  01 41 44.298   +10 26 02.08  3.4894 3.6788  93.3 23.0 4197 113
2025 01 14 10  01 41 44.513   +10 25 58.89  3.4898 3.6785  93.2 23.0 4209 113
2025 01 14 11  01 41 44.731   +10 25 55.72  3.4902 3.6783  93.2 23.0 4222 113
2025 01 14 12  01 41 44.950   +10 25 52.55  3.4907 3.6780  93.1 23.0 4234 113
2025 01 14 13  01 41 45.171   +10 25 49.40  3.4911 3.6778  93.1 23.0 4246 113
2025 01 14 14  01 41 45.394   +10 25 46.26  3.4916 3.6775  93.1 23.0 4258 113
2025 01 14 15  01 41 45.619   +10 25 43.12  3.4920 3.6772  93.0 23.0 4270 113
2025 01 14 16  01 41 45.846   +10 25 40.01  3.4924 3.6770  93.0 23.0 4282 113
2025 01 14 17  01 41 46.074   +10 25 36.90  3.4929 3.6767  92.9 23.0 4294 113
2025 01 14 18  01 41 46.305   +10 25 33.80  3.4933 3.6765  92.9 23.0 4307 113
2025 01 14 19  01 41 46.537   +10 25 30.72  3.4938 3.6762  92.8 23.0 4319 113
2025 01 14 20  01 41 46.772   +10 25 27.65  3.4942 3.6759  92.8 23.0 4331 113
2025 01 14 21  01 41 47.008   +10 25 24.59  3.4946 3.6757  92.8 23.0 4343 113
2025 01 14 22  01 41 47.246   +10 25 21.54  3.4951 3.6754  92.7 23.0 4356 113
2025 01 14 23  01 41 47.486   +10 25 18.50  3.4955 3.6752  92.7 23.0 4368 113
2025 01 15 00  01 41 47.727   +10 25 15.48  3.4960 3.6749  92.6 23.0 4380 113
2025 01 15 01  01 41 47.971   +10 25 12.46  3.4964 3.6747  92.6 23.0 4392 113
2025 01 15 02  01 41 48.217   +10 25 09.46  3.4968 3.6744  92.5 23.0 4405 113
2025 01 15 03  01 41 48.464   +10 25 06.47  3.4973 3.6741  92.5 23.0 4417 113
2025 01 15 04  01 41 48.713   +10 25 03.50  3.4977 3.6739  92.5 23.0 4429 113
2025 01 15 05  01 41 48.964   +10 25 00.53  3.4981 3.6736  92.4 23.0 4442 113
2025 01 15 06  01 41 49.217   +10 24 57.57  3.4986 3.6734  92.4 23.0 4454 113
2025 01 15 07  01 41 49.472   +10 24 54.63  3.4990 3.6731  92.3 23.0 4466 113
2025 01 15 08  01 41 49.729   +10 24 51.70  3.4995 3.6728  92.3 23.0 4479 113
2025 01 15 09  01 41 49.987   +10 24 48.78  3.4999 3.6726  92.3 23.0 4491 113
2025 01 15 10  01 41 50.248   +10 24 45.87  3.5003 3.6723  92.2 23.0 4503 113
2025 01 15 11  01 41 50.510   +10 24 42.97  3.5008 3.6721  92.2 23.0 4516 113
2025 01 15 12  01 41 50.774   +10 24 40.09  3.5012 3.6718  92.1 23.0 4528 113
2025 01 15 13  01 41 51.040   +10 24 37.22  3.5017 3.6715  92.1 23.0 4541 113
2025 01 15 14  01 41 51.308   +10 24 34.36  3.5021 3.6713  92.0 23.0 4553 113